Powrót do katalogu

STARLINK-32276

AktywnyŁącznośćVLEO
NORAD 60944·PAYLOAD·🇺🇸 United States

Wystrzelony Aug 31, 2024 z Vandenberg Space Force Base

Loading…

Następne Przeloty (najbliższe 24 godziny)

TLE

ŚwieżeSource: CelesTrak SupGP

Epoka: Sep 14, 2026, 21:12 UTC

1 60944C 24155W   26257.88381944 -.00013163  00000+0 -38900-3 0  2572
2 60944  53.1594 328.1699 0001142  82.2639 345.9781 15.34389184    12

Śledź STARLINK-32276 w czasie rzeczywistym z AllMySat

Download on the App Store